When you browse on this site, cookies collect data to enhance your experience and personalize the content and advertising you see.
Visit our Privacy Policy to learn more. By continuing to use the site, you agree to this use of cookies and data.

Tiempo cada hora Escuintla

Hoy, 20 Septiembre, Domingo

Tiempo Temperatura Precipitaciones Viento Presión Humedad
00:00 +25°C° 0 mm 1 mps 729 mmHg 93%
01:00 +25°C° 1.1 mm 1 mps 728 mmHg 94%
02:00 +25°C° 1.1 mm 1 mps 728 mmHg 94%
03:00 +24°C° 1.1 mm 1 mps 728 mmHg 94%
04:00 +24°C° 0.7 mm 1 mps 728 mmHg 94%
05:00 +24°C° 0.7 mm 1 mps 728 mmHg 93%
06:00 +24°C° 0.7 mm 1 mps 728 mmHg 93%
07:00 +26°C° 0 mm 1 mps 729 mmHg 87%
08:00 +28°C° 0 mm 1 mps 729 mmHg 81%
09:00 +30°C° 0 mm 1 mps 730 mmHg 75%
10:00 +30°C° 0.5 mm 1 mps 729 mmHg 76%
11:00 +31°C° 0.5 mm 1 mps 729 mmHg 76%
12:00 +31°C° 0.5 mm 1 mps 728 mmHg 76%
13:00 +31°C° 1.4 mm 1 mps 728 mmHg 80%
14:00 +30°C° 1.4 mm 1 mps 727 mmHg 84%
15:00 +30°C° 1.4 mm 1 mps 727 mmHg 87%
16:00 +29°C° 1.2 mm 1 mps 727 mmHg 90%
17:00 +26°C° 1.2 mm 0 mps 727 mmHg 92%
18:00 +25°C° 1.2 mm 0 mps 727 mmHg 95%
19:00 +24°C° 0.3 mm 0 mps 728 mmHg 95%
20:00 +26°C° 0.3 mm 1 mps 729 mmHg 94%
21:00 +26°C° 0.3 mm 1 mps 729 mmHg 94%
22:00 +25°C° 0 mm 1 mps 729 mmHg 94%
23:00 +25°C° 0 mm 1 mps 729 mmHg 94%

Mañana, 21 Septiembre, Lunes

Tiempo Temperatura Precipitaciones Viento Presión Humedad
00:00 +25°C° 0 mm 1 mps 729 mmHg 93%
01:00 +24°C° 0 mm 1 mps 728 mmHg 93%
02:00 +24°C° 0 mm 2 mps 728 mmHg 92%
03:00 +24°C° 0 mm 2 mps 728 mmHg 92%
04:00 +24°C° 0 mm 2 mps 728 mmHg 91%
05:00 +24°C° 0 mm 2 mps 728 mmHg 90%
06:00 +24°C° 0 mm 2 mps 728 mmHg 90%
07:00 +26°C° 0 mm 1 mps 729 mmHg 84%
08:00 +28°C° 0 mm 1 mps 729 mmHg 78%
09:00 +30°C° 0 mm 1 mps 730 mmHg 72%
10:00 +31°C° 0.1 mm 1 mps 729 mmHg 71%
11:00 +31°C° 0.1 mm 1 mps 729 mmHg 70%
12:00 +32°C° 0.1 mm 2 mps 728 mmHg 69%
13:00 +31°C° 1.1 mm 1 mps 728 mmHg 73%
14:00 +30°C° 1.1 mm 1 mps 727 mmHg 77%
15:00 +30°C° 1.1 mm 1 mps 727 mmHg 81%
16:00 +29°C° 0.7 mm 1 mps 727 mmHg 86%
17:00 +28°C° 0.7 mm 1 mps 727 mmHg 90%
18:00 +24°C° 0.7 mm 0 mps 727 mmHg 94%
19:00 +26°C° 0.3 mm 1 mps 728 mmHg 94%
20:00 +25°C° 0.3 mm 1 mps 729 mmHg 93%
21:00 +25°C° 0.3 mm 1 mps 729 mmHg 93%
22:00 +25°C° 0 mm 1 mps 729 mmHg 92%
23:00 +24°C° 0 mm 2 mps 729 mmHg 92%

Pasado mañana, 22 Septiembre, Martes

Tiempo Temperatura Precipitaciones Viento Presión Humedad
00:00 +24°C° 0 mm 2 mps 729 mmHg 92%
01:00 +24°C° 0 mm 2 mps 729 mmHg 91%
02:00 +24°C° 0 mm 2 mps 729 mmHg 90%
03:00 +23°C° 0 mm 2 mps 728 mmHg 90%
04:00 +23°C° 0 mm 2 mps 728 mmHg 88%
05:00 +23°C° 0 mm 2 mps 729 mmHg 86%
06:00 +23°C° 0 mm 2 mps 729 mmHg 85%
07:00 +25°C° 0 mm 2 mps 729 mmHg 78%
08:00 +28°C° 0 mm 1 mps 729 mmHg 72%
09:00 +30°C° 0 mm 1 mps 730 mmHg 65%
10:00 +31°C° 0.1 mm 1 mps 730 mmHg 65%
11:00 +31°C° 0.1 mm 1 mps 729 mmHg 65%
12:00 +32°C° 0.1 mm 2 mps 729 mmHg 65%
13:00 +31°C° 0.9 mm 2 mps 728 mmHg 70%
14:00 +31°C° 0.9 mm 1 mps 728 mmHg 76%
15:00 +30°C° 0.9 mm 1 mps 727 mmHg 81%
16:00 +29°C° 1 mm 1 mps 727 mmHg 85%
17:00 +28°C° 1 mm 1 mps 727 mmHg 90%
18:00 +24°C° 1 mm 0 mps 727 mmHg 94%
19:00 +26°C° 0.2 mm 1 mps 728 mmHg 94%
20:00 +26°C° 0.2 mm 1 mps 728 mmHg 93%
21:00 +25°C° 0.2 mm 1 mps 729 mmHg 93%
22:00 +25°C° 0.1 mm 1 mps 729 mmHg 93%
23:00 +25°C° 0.1 mm 1 mps 729 mmHg 92%

23 Septiembre, Miércoles

Tiempo Temperatura Precipitaciones Viento Presión Humedad
00:00 +24°C° 0.1 mm 2 mps 729 mmHg 92%
01:00 +24°C° 0 mm 2 mps 728 mmHg 92%
02:00 +24°C° 0 mm 2 mps 728 mmHg 91%
03:00 +24°C° 0 mm 1 mps 728 mmHg 91%
04:00 +24°C° 0.2 mm 1 mps 728 mmHg 90%
05:00 +24°C° 0.2 mm 1 mps 728 mmHg 89%
06:00 +24°C° 0.2 mm 1 mps 728 mmHg 89%
07:00 +26°C° 0 mm 1 mps 729 mmHg 83%
08:00 +28°C° 0 mm 1 mps 729 mmHg 77%
09:00 +30°C° 0 mm 1 mps 730 mmHg 72%
10:00 +30°C° 0.2 mm 1 mps 729 mmHg 72%
11:00 +31°C° 0.2 mm 1 mps 729 mmHg 72%
12:00 +32°C° 0.2 mm 2 mps 728 mmHg 72%
13:00 +31°C° 1.6 mm 2 mps 728 mmHg 77%
14:00 +30°C° 1.6 mm 1 mps 727 mmHg 82%
15:00 +30°C° 1.6 mm 1 mps 726 mmHg 87%
16:00 +29°C° 1.5 mm 1 mps 726 mmHg 89%
17:00 +28°C° 1.5 mm 1 mps 727 mmHg 91%
18:00 +25°C° 1.5 mm 0 mps 727 mmHg 94%
19:00 +24°C° 0.4 mm 0 mps 728 mmHg 94%
20:00 +26°C° 0.4 mm 1 mps 728 mmHg 94%
21:00 +25°C° 0.4 mm 1 mps 729 mmHg 94%
22:00 +25°C° 0.5 mm 1 mps 729 mmHg 94%
23:00 +25°C° 0.5 mm 1 mps 729 mmHg 93%

24 Septiembre, Jueves

Tiempo Temperatura Precipitaciones Viento Presión Humedad
00:00 +24°C° 0.5 mm 1 mps 729 mmHg 93%
01:00 +24°C° 0.2 mm 1 mps 728 mmHg 93%
02:00 +24°C° 0.2 mm 1 mps 728 mmHg 92%
03:00 +24°C° 0.2 mm 2 mps 727 mmHg 92%
04:00 +24°C° 0 mm 2 mps 728 mmHg 91%
05:00 +24°C° 0 mm 2 mps 728 mmHg 90%
06:00 +24°C° 0 mm 2 mps 728 mmHg 90%
07:00 +26°C° 0 mm 1 mps 728 mmHg 84%
08:00 +28°C° 0 mm 1 mps 729 mmHg 77%
09:00 +28°C° 0 mm 0 mps 729 mmHg 71%
10:00 +31°C° 0 mm 1 mps 729 mmHg 69%
11:00 +31°C° 0 mm 1 mps 729 mmHg 68%
12:00 +32°C° 0 mm 1 mps 728 mmHg 66%
13:00 +31°C° 0.5 mm 1 mps 728 mmHg 71%
14:00 +31°C° 0.5 mm 1 mps 727 mmHg 77%
15:00 +30°C° 0.5 mm 1 mps 727 mmHg 82%
16:00 +29°C° 1.6 mm 1 mps 727 mmHg 86%
17:00 +28°C° 1.6 mm 1 mps 727 mmHg 90%
18:00 +24°C° 1.6 mm 0 mps 727 mmHg 94%
19:00 +24°C° 0.7 mm 0 mps 728 mmHg 94%
20:00 +24°C° 0.7 mm 0 mps 729 mmHg 95%
21:00 +25°C° 0.7 mm 1 mps 729 mmHg 95%
22:00 +25°C° 1.3 mm 1 mps 729 mmHg 95%
23:00 +25°C° 1.3 mm 1 mps 729 mmHg 95%

25 Septiembre, Viernes

Tiempo Temperatura Precipitaciones Viento Presión Humedad
00:00 +25°C° 1.3 mm 1 mps 729 mmHg 95%
01:00 +25°C° 1.9 mm 1 mps 729 mmHg 96%
02:00 +25°C° 1.9 mm 1 mps 728 mmHg 96%
03:00 +25°C° 1.9 mm 1 mps 728 mmHg 96%
04:00 +24°C° 0.3 mm 1 mps 728 mmHg 95%
05:00 +24°C° 0.3 mm 1 mps 728 mmHg 94%
06:00 +24°C° 0.3 mm 1 mps 728 mmHg 93%
07:00 +26°C° 0.1 mm 1 mps 729 mmHg 90%
08:00 +27°C° 0.1 mm 1 mps 729 mmHg 87%
09:00 +28°C° 0.1 mm 1 mps 730 mmHg 84%
10:00 +28°C° 1.6 mm 1 mps 729 mmHg 88%
11:00 +27°C° 1.6 mm 1 mps 729 mmHg 92%
12:00 +26°C° 1.6 mm 1 mps 729 mmHg 96%
13:00 +26°C° 1.5 mm 1 mps 728 mmHg 96%
14:00 +26°C° 1.5 mm 1 mps 728 mmHg 96%
15:00 +23°C° 1.5 mm 0 mps 727 mmHg 96%
16:00 +23°C° 0.7 mm 0 mps 728 mmHg 97%
17:00 +23°C° 0.7 mm 0 mps 728 mmHg 97%
18:00 +23°C° 0.7 mm 0 mps 728 mmHg 97%
19:00 +23°C° 0.2 mm 0 mps 729 mmHg 96%
20:00 +24°C° 0.2 mm 1 mps 729 mmHg 95%
21:00 +24°C° 0.2 mm 1 mps 730 mmHg 93%
22:00 +24°C° 0 mm 1 mps 730 mmHg 92%
23:00 +24°C° 0 mm 1 mps 730 mmHg 92%
Mostrar más